Regional Weather Roundup
Issued by NWS

Home | Current Version | Previous Version | Graphics & Text | Print | Product List | Glossary Off
Versions: 1 2 3 4 5 6 7 8 9 10 11 12 13 14 15 16 17 18 19 20 21 22 23 24 25 26 27 28 29 30 31 32 33 34 35 36 37 38 39 40 41 42 43 44 45 46 47 48 49 50

000
ASUS43 KMKX 190911
RWRWI

WISCONSIN REGIONAL WEATHER ROUNDUP
NATIONAL WEATHER SERVICE MILWAUKEE/SULLIVAN WI
300 AM CST SUN FEB 19 2017

NOTE: "FAIR" INDICATES FEW OR NO CLOUDS BELOW 12,000 FEET WITH NO
SIGNIFICANT WEATHER AND/OR OBSTRUCTIONS TO VISIBILITY.

WIZ001-002-006>008-014>016-023>028-191000-
NORTHWEST WISCONSIN

CITY           SKY/WX    TMP DP  RH WIND       PRES   REMARKS
SUPERIOR ARPT  CLOUDY    32  29  90 CALM      29.91R
ASHLAND        PTCLDY    30  26  85 SW5       29.90R WCI  25
HAYWARD        PTCLDY    31  26  82 CALM      29.90R
SIREN          CLEAR     30  28  94 CALM      29.90S
CUMBERLAND     CLEAR     32  30  93 CALM      29.89S
RICE LAKE      CLEAR     31  30  96 CALM      29.91R
CHETEK         CLEAR     30  29  99 CALM      29.90S
LADYSMITH      CLEAR     32  30  92 CALM      29.91R
EAU CLAIRE     CLEAR     32  31  96 SW5       29.90R WCI  27
MENOMONIE      CLEAR     31  30  95 CALM      29.91R
NEW RICHMOND   CLEAR     32  31  98 CALM      29.91R
OSCEOLA        CLEAR     30  30 100 CALM      29.94R
$$

WIZ003>005-009-010-017-018-191000-
NORTH CENTRAL WISCONSIN

CITY           SKY/WX    TMP DP  RH WIND       PRES   REMARKS
MANITOWISH WTR CLEAR     32  29  88 W3        29.86R
ARBOR VITAE    CLEAR     37  29  75 NW5       29.87R WCI  33
WOODRUFF       CLEAR     37  29  75 NW5       29.87R WCI  33
RHINELANDER    CLEAR     43  31  62 NW8       29.86R
EAGLE RIVER    PTCLDY    38  28  67 NW3       29.85R
LAND O LAKES   CLOUDY    33  26  77 W3        29.87R
PHILLIPS       CLEAR     29  28  96 CALM      29.88R
TOMAHAWK       CLEAR     35  30  79 W3        29.88R
MEDFORD        CLEAR     35  32  87 W5        29.88R WCI  31
MERRILL        NOT AVBL
$$

WIZ029-030-035-036-043>047-191000-
CENTRAL WISCONSIN

CITY           SKY/WX    TMP DP  RH WIND       PRES   REMARKS
WAUSAU         CLOUDY    36  31  82 NW3       29.87R
MOSINEE        CLOUDY    34  32  93 CALM      29.89R
MARSHFIELD     CLEAR     36  31  82 NW3       29.88R
STEVENS POINT  PTCLDY    34  31  89 CALM      29.89R
WAUPACA        CLOUDY    40  32  73 CALM      29.88R
WAUTOMA        CLOUDY    33  30  88 W5        29.90R WCI  29
WISC RAPIDS    PTCLDY    31  29  92 CALM      29.91R
CAMP DOUGLAS   CLEAR     27  26  95 CALM      29.91R
$$

WIZ011>013-019>022-031-037>040-048>050-191000-
NORTHEAST WISCONSIN

CITY           SKY/WX    TMP DP  RH WIND       PRES   REMARKS
ANTIGO         CLOUDY    32  30  93 CALM      29.86R
SHAWANO        CLOUDY    42  32  68 SW3       29.86S
OCONTO         CLOUDY    36  30  78 CALM      29.85R
STURGEON BAY   CLOUDY    42  31  64 W7        29.86R
GREEN BAY      CLOUDY    40  33  76 W6        29.87R
MANITOWOC      CLOUDY    44  31  60 MISG      29.87R
APPLETON       PTCLDY    36  28  75 W10       29.86R WCI  28
CLINTONVILLE   CLOUDY    41  32  70 CALM      29.86S
OSHKOSH        PTCLDY    41  30  65 W6        29.88R
$$

WIZ032>034-041-042-053>061-191000-
SOUTHWEST WISCONSIN

CITY           SKY/WX    TMP DP  RH WIND       PRES   REMARKS
LA CROSSE      CLOUDY    33  29  85 SE3       29.92R
SPARTA         CLEAR     25  24  94 CALM      29.93R
VIROQUA        CLOUDY    40  34  80 CALM      29.90S
BOSCOBEL       PTCLDY    27  25  92 CALM      29.93R FOG
PRAIRIE DU CHI CLEAR     29  28  95 CALM      29.92R
PLATTEVILLE    CLEAR     37  37 100 CALM      29.91S
$$

WIZ056-057-062-063-064-067-068-191000-
SOUTH CENTRAL WISCONSIN

CITY           SKY/WX    TMP DP  RH WIND       PRES   REMARKS
REEDSBURG      CLEAR     30  30  99 CALM      29.91R
BARABOO/DELLS  CLEAR     32  29  90 CALM      29.91R
LONE ROCK      CLEAR     29  27  92 CALM      29.93R
MINERAL POINT  CLEAR     46  34  61 CALM      29.91R
MADISON        PTCLDY    30  29  96 CALM      29.90R
MIDDLETON      PTCLDY    32  32  99 CALM      29.91R
WATERTOWN      CLOUDY    31  31 100 CALM      29.90R
MONROE         CLEAR     48  32  53 CALM      29.90S
JANESVILLE     FOG       32  32 100 CALM      29.90S VSB 3/4
$$

WIZ051-052-058>065-066-070>072-191000-
SOUTHEAST WISCONSIN

CITY           SKY/WX    TMP DP  RH WIND       PRES   REMARKS
MILWAUKEE      PTCLDY    34  27  75 CALM      29.89R
WAUKESHA         N/A     32  28  86 CALM      29.91R
MILWAUKEE/TIMM CLEAR     37  30  75 CALM      29.90R
RACINE         CLEAR     43  34  70 W8        29.90R
KENOSHA        CLEAR     37  31  78 CALM      29.89R
FOND DU LAC    CLOUDY    34  28  79 S3        29.89R
SHEBOYGAN      CLOUDY    41  30  65 W6        29.87R
WEST BEND      CLOUDY    39  32  75 W5        29.89R
JUNEAU         CLOUDY    35  30  82 CALM      29.90S
$$

LSZ147-162-191000-
LAKE SUPERIOR

STATION/POSITION TIME  TEMP    WIND        PRES    WAVE
                       AIR SEA DIR/SP/G            HT/PER
                 (UTC) (F)     (DEG/KT/KT) (MB)    (FT/S)
DEVILS ISLAND    0900   38     300/  9/ 10 1012.7R
PORT WING        0840   33     170/  3/  4 1012.5R
SAXON HARBOR     0840   34     170/  2/  4 1011.9R
$$

LMZ867-665-643>646-191000-
LAKE MICHIGAN

STATION/POSITION TIME  TEMP    WIND        PRES    WAVE
                       AIR SEA DIR/SP/G            HT/PER
                 (UTC) (F)     (DEG/KT/KT) (MB)    (FT/S)
CHAMBERS ISLAND  0840   40     200/  7/ 11 1010.5R
NORTHPORT PIER   0900   44     250/  3/ 18 1010.5
SISTER BAY       0820   41     280/  8/  9   N/A
KEWAUNEE LAKESHO 0842   45     290/  6/ 10 1010.2R
SHEBOYGAN LAKESH 0900   48     280/  9/ 10 1011.6R
PORT WASHINGTON  0830   45     290/  5/  8 1012.5R
MILWAUKEE LAKESH 0850   47     300/ 10/ 11   N/A
KENOSHA   LAKESH 0900   48     290/  4/  5 1012.2
$$

TC  - TEMPERATURE IN CELSIUS
VSB - VISIBILITY IN STATUTE MILES
WCI - WIND CHILL INDEX
HX  - HEAT INDEX





USA.gov is the U.S. government's official web portal to all federal, state and local government web resources and services.